Regional Weather Roundup
Issued by NWS Wakefield, VA

Home | Current Version | Previous Version | Graphics & Text | Print | Product List | Glossary On
Versions: 1 2 3 4 5 6 7 8 9 10 11 12 13 14 15 16 17 18 19 20 21 22 23 24 25 26 27 28 29 30 31 32 33 34 35 36 37 38 39 40 41 42 43 44 45 46 47 48 49 50
000
ASUS41 KAKQ 280314
RWRAKQ

REGIONAL WEATHER ROUNDUP
NATIONAL WEATHER SERVICE WAKEFIELD VA
1100 PM EDT MON APR 27 2015

Note: "fair" indicates few or no clouds below 12,000 feet with no
significant weather and/or obstructions to visibility. * = Denotes
station may not report precipitation (e.g., rain,snow,etc.),
thunder or fog.

VAZ042-051-052>054-056-280400-
NORTHERN VIRGINIA

CITY           SKY/WX    TMP DP  RH WIND       PRES   REMARKS
WASH NATIONAL  MOCLDY    53  38  56 NW17G23   29.89R
DULLES         PTCLDY    49  35  58 NW16      29.90R
FORT BELVOIR   PTCLDY    50  38  63 NW9       29.89R
QUANTICO       PTCLDY    52  35  52 NW15G26   29.91R
FREDERICKSBRG* CLEAR     52  37  56 NW13      29.90R
STAFFORD*      CLEAR     49  33  54 NW12      29.95R
WARRENTON      PTCLDY    49  37  65 NW10      29.92R
CULPEPER*      CLEAR     52  36  54 NW5       29.93R
MANASSAS*      MOCLDY    48  37  66 NW13      29.91
LEESBURG*      PTCLDY    48  37  66 NW13G21   29.91S
WINCHESTER     CLEAR     46  30  53 NW13G18   29.93R
FRONT ROYAL*   FAIR      46  34  61 NW7       29.93R
LURAY*         CLOUDY    50  37  62 N9        29.95R
$$

VAZ048-049-060>072-079>083-280400-
CENTRAL AND SOUTH CENTRAL VIRGINIA

CITY           SKY/WX    TMP DP  RH WIND       PRES   REMARKS
RICHMOND       PTCLDY    54  34  46 NW14      29.89R
CHESTERFIELD*  MOCLDY    48  28  46 NW8       29.91R
PETERSBURG*    CLEAR     43  37  81 W6        29.90R
HANOVER        CLEAR     52  33  48 N5        29.91R
TAPPAHANNOCK*  CLEAR     51  32  48 NW5       29.89R
QUINTON*       FAIR      51  35  52 NW6       29.88R
CHARLOTTSVILLE CLEAR     50  33  52 VRB6      29.93R
GORDONSVILLE*  FAIR      50  33  52 NE7       29.93R
ORANGE*        CLOUDY    50  36  57 NW6       29.94R
LOUISA*        PTCLDY    52  36  54 NW7       29.91R
BUMPASS*       FAIR      52  34  51 NW7       29.91R
FARMVILLE*     PTCLDY    51  36  57 E5        29.91R
CREWE*         MOCLDY    48  35  59 W6        29.91R
FORT PICKETT*  FAIR      47  33  57 NW6       29.91R
CHASE CITY*    FAIR      46  40  82 CALM      29.92R
CLARKSVILLE*   FAIR      45  37  76 SW3       29.93R
SOUTH HILL*    CLEAR     43  39  86 CALM      29.97R
LAWRENCEVILLE* FAIR      43  39  85 CALM      29.89R
EMPORIA*       CLEAR     41  37  87 CALM      29.91S
$$

VAZ088>098-280400-
SOUTHEAST VIRGINIA

CITY           SKY/WX    TMP DP  RH WIND       PRES   REMARKS
NORFOLK        CLEAR     56  34  43 NW6       29.86R
VIRGINIA BEACH MOCLDY    54  38  54 NW8       29.85R
NORFOLK NAVAL  CLEAR     58  36  43 NW8       29.87S
WEST POINT*    PTCLDY    46  40  78 W5        29.88S
SALUDA*        FAIR      54  39  56 N12       29.85S
NEWPORT NEWS   CLEAR     49  38  65 CALM      29.86S
LANGLEY AFB    CLEAR     46  38  73 SW6       29.85S
FORT EUSTIS    CLEAR     55  37  49 NW10      29.84S
WILLIAMSBURG*  CLEAR     48  39  71 NW5       29.88R
HR EXEC AP*    FAIR      43  37  81 CALM      29.88R
FRANKLIN*      CLEAR     46  40  81 CALM      29.88S
WAKEFIELD      PTCLDY    46  39  76 CALM      29.88R
$$

VAZ020-022-025-037-045-280400-
WEST CENTRAL AND SOUTHWEST VIRGINIA

CITY           SKY/WX    TMP DP  RH WIND       PRES   REMARKS
STAUNTON*      MOCLDY    47  34  60 N5        29.95R
WAYNESBORO*    CLOUDY    46  31  57 NW6       29.93R
HOT SPRINGS VA PTCLDY    37  30  73 NW13G23   29.89S
LYNCHBURG      CLEAR     49  31  49 CALM      29.94R
DANVILLE       CLEAR     44  35  70 SW5       29.96R
SOUTH BOSTON*  FAIR      46  34  62 CALM      29.94R
MARTINSVILLE   CLEAR     41  35  81 CALM      29.98R
ROANOKE        CLEAR     48  32  53 NW9       29.96R
BLACKSBURG     MOCLDY    45  32  58 NW7       29.98R
DUBLIN*        MOCLDY    47  34  59 NW3       29.98R
MARION*        PTCLDY    44  32  63 CALM      29.98S
HILLSVILLE*    CLEAR     45  30  56 W3        29.96R
RICHLANDS*     MOCLDY    47   4  17 CALM      29.97R
WISE*          CLEAR     45  30  57 SW3       29.99R
ABINGDON*      CLEAR     44  36  72 CALM      29.98S
$$

MDZ021>025-VAZ099-100-280400-
SOUTHERN MARYLAND AND THE DELMARVA PENINSULA

CITY           SKY/WX    TMP DP  RH WIND       PRES   REMARKS
PATUXENT RIVER PTCLDY    53  38  56 NW18G25   29.84S
BAY BRIDGE APT   N/A    N/A N/A N/A NW14      29.84S
LEONARDTOWN    PTCLDY    52  34  50 W7        29.87R
DOVER          CLOUDY    52  37  56 W13       29.76R
GEORGETOWN     CLEAR     51  34  52 W8        29.80S
EASTON         CLEAR     53  40  62 N13G21    29.87R
CAMBRIDGE      PTCLDY    55  37  50 NW16      29.83R
SALISBURY      FAIR      51  35  54 NW9       29.81R
OCEAN CITY     CLEAR     50  34  54 NW5       29.80R
WALLOPS ISLAND CLEAR     51  36  56 NW9       29.82R
ACCOMACK*      PTCLDY    54  16  22 NW10G17   29.83S
$$

NCZ012>017-030>032-280400-
NORTH CENTRAL AND EASTERN NORTH CAROLINA

CITY           SKY/WX    TMP DP  RH WIND       PRES   REMARKS
ROANOKE RAPIDS FAIR      45  39  81 CALM      29.91R
RALEIGH        PTCLDY    54  32  43 CALM      29.94R
ELIZABETH CITY MOCLDY    50  41  71 W6        29.86S
AHOSKIE*         N/A     47  40  77 CALM      29.90R
EDENTON*       CLOUDY    56  42  60 CALM      29.87S
CURRITUCK*     MOCLDY    52  42  69 NW3       29.86S
KILL DEVIL HLS CLOUDY    52  42  68 CALM      29.84S
MANTEO         CLOUDY    53  40  61 CALM      29.86R
CAPE HATTERAS  PTCLDY    49  37  63 NE3       29.85R
TARBORO*       FAIR      48  43  80 CALM      29.91R
GOLDSBORO      MOCLDY    59  35  40 NW7       29.89R
WASHINGTON     PTCLDY    53  39  58 N5        29.89R
GREENVILLE     PTCLDY    54  39  58 CALM      29.93R
NEW BERN       MOCLDY    59  39  47 N8        29.89R
WILMINGTON     PTCLDY    57  47  69 N7        29.89R
$$

VAZ048-280400-
ELSEWHERE

CITY           SKY/WX    TMP DP  RH WIND       PRES   REMARKS
HARRISBURG PA  PTCLDY    49  33  54 NW9       29.85R
BALTIMORE      PTCLDY    48  37  65 W9        29.86R
ANNAPOLIS      PTCLDY    52  37  56 NW9       29.85R
ANDREWS AFB    PTCLDY    51  38  61 NW15G24   29.86S
PHILADELPHIA   PTCLDY    53  33  46 N16       29.80R
HENDERSON NC   CLEAR     50  31  48 NW3       29.93R
GREENSBORO     CLEAR     50  32  50 CALM      29.94R
ROCKY MOUNT    CLEAR     50  41  71 CALM      29.92R
$$

VAZ100-280400-
MARINE

STATION/POSITION TIME  TEMP    WIND        PRES    WAVE   SWELL
                       AIR SEA DIR/SP/G            HT/PER HT/PER
                 (UTC) (F)     (DEG/KT/KT) (MB)    (FT/S) (FT/S)
BRANDYWINE LGT   0200   54 53  330/ 14/ 17 1008.2S
CAPE MAY NJ      0200   54 57  310/  9/ 16 1007.6S
LEWES DE         0200   55 53  310/ 16/ 18 1008.3R
15NM E FENWICK I 0250   52 49              1007.8F   2/ 9
OCEAN-CITY-INLET 0200   54 52  320/  9/ 11 1008.4R
WACHAPREAGUE VA  0200   54 61  290/  2/  5 1009.9R
THOMAS POINT MD  0300   52 54  310/ 17/ 19 1011.0R
GOOSES REEF MD   0300   53 53  330/ 16/ 17   N/A     2/ 2
COVE POINT MD    0200   54     330/ 18/ 22 1010.9R
SOLOMONS ISLAND  0200      56                N/A
BISHOPS HEAD MD  0200   55 59  330/ 15/ 19 1009.7R
PINEY POINT MD   0200          340/ 18/ 20   N/A
CAMBRIDGE MD     0200   56 59  300/ 15/ 20 1009.7R
LEWISETTA VA     0200   56 58              1010.5R
RAPPAHANNOCK LGT 0200          300/ 16/ 18 1010.8R
YORK RVR RNG VA  0200   56     320/ 10/ 12 1010.4R
YORKTOWN VA      0200   56 60  340/ 10/ 13 1010.7R
JAMESTOWN VA     0300   55 63  350/  6/  8 1010.5R
DOMINION TERM VA 0200   58      50/  2/  5 1011.0R
KIPTOPEKE VA     0200      62  330/ 19/ 21   N/A
CHES BAY BRIDGE  0200   58 58  320/ 15/ 19 1010.4R
CAPE HENRY VA    0200   58     320/ 22/ 24 1009.3R
CHESAPEAKE LGHT  0200   56     330/ 16/ 17 1011.0R
WILLOUBY STN VA  0200   57     330/ 11/ 13 1011.5R
S CRANEY ISL VA  0200          330/  8/ 12 1010.8R
CAPE HENRY BUOY  0228      52                N/A     2/ 8
OFFSHORE WE BUOY 0211      51                N/A     2/ 8   2/ 8
64NM E OF VA BCH 0250   55 56  300/ 12/ 14 1009.4S   2/ 8   2/ 8
DUCK PIER NC     0200   54 55  320/  4/  4 1009.5R
44056 DUCK FRF   0211      55                N/A     2/ 7
OREGON INLET NC  0200   53 58  340/  2/  3 1010.5R
HATTERAS NC      0200   57 64   40/  6/  9 1009.8R
DIAMOND SHLS NC  0250   61 74   20/ 10/ 16 1010.3R   4/ 8   3/ 8
CAPE LOOKOUT NC  0300   60      10/  7/  8 1010.9R
$$



USA.gov is the U.S. government's official web portal to all federal, state and local government web resources and services.